Time,TemperatureF,DewpointF,PressureIn,WindDirection,WindDirectionDegrees,WindSpeedMPH,WindSpeedGustMPH,Humidity,HourlyPrecipIn,Conditions,Clouds,dailyrainin,SolarRadiationWatts/m^2,SoftwareType,DateUTC
2013-08-23 00:02:00,62.8,61.9,30.08,NNE,28,0.0,0.0,97,0.00,RA,,0.00,0.0,WeatherDisplay:10.37,2013-08-23 05:02:00,
2013-08-23 00:07:00,63.1,62.2,30.08,NNE,28,0.0,0.0,97,0.00,RA,,0.00,0.0,WeatherDisplay:10.37,2013-08-23 05:07:00,
2013-08-23 00:12:00,63.0,62.1,30.08,NNE,28,0.0,0.0,97,0.00,OVC,,0.00,0.0,WeatherDisplay:10.37,2013-08-23 05:12:00,
2013-08-23 00:17:00,63.0,62.1,30.08,NNE,28,0.0,0.0,97,0.00,OVC,,0.00,0.0,WeatherDisplay:10.37,2013-08-23 05:17:00,
2013-08-23 00:22:00,62.8,61.6,30.08,NNE,28,0.0,0.0,96,0.00,OVC,,0.00,0.0,WeatherDisplay:10.37,2013-08-23 05:22:00,
2013-08-23 00:27:00,62.6,61.7,30.08,NNE,28,0.0,0.0,97,0.00,OVC,,0.00,0.0,WeatherDisplay:10.37,2013-08-23 05:27:00,
2013-08-23 00:32:00,62.5,61.6,30.08,NNE,28,0.0,0.0,97,0.00,OVC,,0.00,0.0,WeatherDisplay:10.37,2013-08-23 05:32:00,
2013-08-23 00:37:00,62.5,61.6,30.08,NNE,28,0.0,0.0,97,0.00,OVC,,0.00,0.0,WeatherDisplay:10.37,2013-08-23 05:37:00,
2013-08-23 00:42:00,62.3,61.1,30.08,NNE,28,2.3,2.3,96,0.00,OVC,,0.00,0.0,WeatherDisplay:10.37,2013-08-23 05:42:00,
2013-08-23 00:47:00,62.3,61.4,30.08,NNE,28,2.3,2.3,97,0.00,OVC,,0.00,0.0,WeatherDisplay:10.37,2013-08-23 05:47:00,
2013-08-23 00:52:00,62.2,61.3,30.08,NNE,28,0.0,0.0,97,0.00,OVC,,0.00,0.0,WeatherDisplay:10.37,2013-08-23 05:52:00,
2013-08-23 00:57:00,62.2,61.3,30.08,NNE,28,1.0,0.0,97,0.00,OVC,,0.00,0.0,WeatherDisplay:10.37,2013-08-23 05:57:00,
2013-08-23 01:02:00,62.2,61.3,30.08,NNE,28,2.3,2.3,97,0.00,OVC,,0.00,0.0,WeatherDisplay:10.37,2013-08-23 06:02:00,
2013-08-23 01:07:00,62.1,61.2,30.08,NNE,28,2.3,2.3,97,0.00,OVC,,0.00,0.0,WeatherDisplay:10.37,2013-08-23 06:07:00,
2013-08-23 01:12:00,62.1,61.2,30.09,NNE,28,3.5,3.5,97,0.00,OVC,,0.00,0.0,WeatherDisplay:10.37,2013-08-23 06:12:00,
2013-08-23 01:17:00,62.2,61.3,30.08,NNE,16,2.3,2.3,97,0.00,OVC,,0.00,0.0,WeatherDisplay:10.37,2013-08-23 06:17:00,
2013-08-23 01:22:00,62.3,61.4,30.08,NNE,17,2.3,2.3,97,0.00,OVC,,0.00,0.0,WeatherDisplay:10.37,2013-08-23 06:22:00,
2013-08-23 01:27:00,62.4,61.5,30.08,NNE,17,1.1,1.1,97,0.00,OVC,,0.00,0.0,WeatherDisplay:10.37,2013-08-23 06:27:00,
2013-08-23 01:32:00,62.3,61.4,30.08,NNE,16,0.0,0.0,97,0.00,OVC,,0.00,0.0,WeatherDisplay:10.37,2013-08-23 06:32:00,
2013-08-23 01:37:00,62.2,61.3,30.08,NNE,16,0.0,0.0,97,0.00,OVC,,0.00,0.0,WeatherDisplay:10.37,2013-08-23 06:37:00,
2013-08-23 01:42:00,62.0,61.1,30.08,NNE,16,0.0,0.0,97,0.00,OVC,,0.00,0.0,WeatherDisplay:10.37,2013-08-23 06:42:00,
2013-08-23 01:47:00,61.8,60.9,30.08,NNE,17,0.0,0.0,97,0.00,OVC,,0.00,0.0,WeatherDisplay:10.37,2013-08-23 06:47:00,
2013-08-23 01:52:00,61.7,60.8,30.08,NNE,16,0.0,0.0,97,0.00,OVC,,0.00,0.0,WeatherDisplay:10.37,2013-08-23 06:52:00,
2013-08-23 01:57:00,61.5,60.6,30.08,NNE,16,0.0,0.0,97,0.00,OVC,,0.01,0.0,WeatherDisplay:10.37,2013-08-23 06:57:00,
2013-08-23 02:02:00,61.4,60.5,30.08,NNE,16,0.0,0.0,97,0.01,RA,,0.01,0.0,WeatherDisplay:10.37,2013-08-23 07:02:00,
2013-08-23 02:07:00,61.2,60.3,30.07,NNE,16,0.0,0.0,97,0.01,RA,,0.01,0.0,WeatherDisplay:10.37,2013-08-23 07:07:00,
2013-08-23 02:12:00,61.1,60.2,30.07,NNE,17,0.0,0.0,97,0.01,OVC,,0.01,0.0,WeatherDisplay:10.37,2013-08-23 07:12:00,
2013-08-23 02:17:00,61.0,60.1,30.07,NNE,16,0.0,0.0,97,0.01,OVC,,0.01,0.0,WeatherDisplay:10.37,2013-08-23 07:17:00,
2013-08-23 02:22:00,61.3,60.4,30.07,NNE,16,0.0,0.0,97,0.01,OVC,,0.01,0.0,WeatherDisplay:10.37,2013-08-23 07:22:00,
2013-08-23 02:27:00,61.3,60.4,30.08,NNE,16,1.1,1.1,97,0.01,OVC,,0.01,0.0,WeatherDisplay:10.37,2013-08-23 07:27:00,
2013-08-23 02:32:00,61.4,60.8,30.08,NNE,16,0.0,0.0,98,0.01,OVC,,0.01,0.0,WeatherDisplay:10.37,2013-08-23 07:32:00,
2013-08-23 02:37:00,61.4,60.5,30.08,NNE,16,1.1,1.1,97,0.01,OVC,,0.01,0.0,WeatherDisplay:10.37,2013-08-23 07:37:00,
2013-08-23 02:42:00,61.4,60.5,30.07,NNE,17,2.3,2.3,97,0.01,OVC,,0.01,0.0,WeatherDisplay:10.37,2013-08-23 07:42:00,
2013-08-23 02:47:00,61.3,60.4,30.07,NNE,16,1.1,0.0,97,0.01,OVC,,0.01,0.0,WeatherDisplay:10.37,2013-08-23 07:47:00,
2013-08-23 02:52:00,61.2,60.3,30.07,NNE,16,0.0,0.0,97,0.01,OVC,,0.01,0.0,WeatherDisplay:10.37,2013-08-23 07:52:00,
2013-08-23 02:57:00,61.2,60.3,30.07,NNE,16,1.1,0.0,97,0.01,OVC,,0.01,0.0,WeatherDisplay:10.37,2013-08-23 07:57:00,
2013-08-23 03:02:00,61.2,60.3,30.08,NNE,17,0.0,0.0,97,0.00,OVC,,0.01,0.0,WeatherDisplay:10.37,2013-08-23 08:02:00,
2013-08-23 03:07:00,61.1,60.2,30.08,NNE,16,1.1,0.0,97,0.00,OVC,,0.01,0.0,WeatherDisplay:10.37,2013-08-23 08:07:00,
2013-08-23 03:12:00,61.0,60.1,30.08,NNE,16,0.0,0.0,97,0.00,OVC,,0.01,0.0,WeatherDisplay:10.37,2013-08-23 08:12:00,
2013-08-23 03:17:00,60.8,59.9,30.08,NNE,17,0.0,0.0,97,0.00,OVC,,0.01,0.0,WeatherDisplay:10.37,2013-08-23 08:17:00,
2013-08-23 03:22:00,60.7,59.8,30.08,NNE,17,0.0,0.0,97,0.00,OVC,,0.01,0.0,WeatherDisplay:10.37,2013-08-23 08:22:00,
2013-08-23 03:27:00,60.6,59.7,30.08,NNE,16,0.0,0.0,97,0.00,OVC,,0.01,0.0,WeatherDisplay:10.37,2013-08-23 08:27:00,
2013-08-23 03:32:00,60.6,59.7,30.08,NNE,16,1.1,1.1,97,0.00,OVC,,0.01,0.0,WeatherDisplay:10.37,2013-08-23 08:32:00,
2013-08-23 03:37:00,60.7,59.8,30.08,NNE,16,2.3,2.3,97,0.00,OVC,,0.01,0.0,WeatherDisplay:10.37,2013-08-23 08:37:00,
2013-08-23 03:42:00,60.6,59.7,30.08,NNE,16,1.1,0.0,97,0.00,OVC,,0.01,0.0,WeatherDisplay:10.37,2013-08-23 08:42:00,
2013-08-23 03:47:00,60.5,59.6,30.08,NNE,16,1.1,1.1,97,0.00,OVC,,0.01,0.0,WeatherDisplay:10.37,2013-08-23 08:47:00,
2013-08-23 03:52:00,60.6,59.7,30.08,NNE,16,1.1,1.1,97,0.00,OVC,,0.01,0.0,WeatherDisplay:10.37,2013-08-23 08:52:00,
2013-08-23 03:57:00,60.5,59.6,30.08,NNE,16,2.3,2.3,97,0.00,OVC,,0.01,0.0,WeatherDisplay:10.37,2013-08-23 08:57:00,
2013-08-23 04:03:00,60.7,59.8,30.08,NNE,17,3.5,3.5,97,0.00,OVC,,0.01,0.0,WeatherDisplay:10.37,2013-08-23 09:03:00,
2013-08-23 04:08:00,60.7,59.8,30.08,NNE,16,3.5,3.5,97,0.00,OVC,,0.01,0.0,WeatherDisplay:10.37,2013-08-23 09:08:00,
2013-08-23 04:13:00,60.7,59.8,30.08,NNE,16,3.5,3.5,97,0.00,OVC,,0.01,0.0,WeatherDisplay:10.37,2013-08-23 09:13:00,
2013-08-23 04:18:00,61.0,60.4,30.08,NNE,16,3.5,3.5,98,0.00,OVC,,0.01,0.0,WeatherDisplay:10.37,2013-08-23 09:18:00,
2013-08-23 04:23:00,61.4,60.8,30.08,NNW,342,5.0,5.0,98,0.00,OVC,,0.01,0.0,WeatherDisplay:10.37,2013-08-23 09:23:00,
2013-08-23 04:28:00,61.8,61.2,30.08,NNW,342,3.5,3.5,98,0.00,OVC,,0.01,0.0,WeatherDisplay:10.37,2013-08-23 09:28:00,
2013-08-23 04:33:00,61.8,61.2,30.08,NNW,342,3.5,3.5,98,0.00,OVC,,0.01,0.0,WeatherDisplay:10.37,2013-08-23 09:33:00,
2013-08-23 04:38:00,61.8,61.2,30.08,NNW,342,2.3,0.0,98,0.00,OVC,,0.01,0.0,WeatherDisplay:10.37,2013-08-23 09:38:00,
2013-08-23 04:43:00,61.6,61.0,30.08,NNW,342,0.0,0.0,98,0.00,OVC,,0.01,0.0,WeatherDisplay:10.37,2013-08-23 09:43:00,
2013-08-23 04:48:00,61.4,60.8,30.08,NNW,342,0.0,0.0,98,0.00,OVC,,0.01,0.0,WeatherDisplay:10.37,2013-08-23 09:48:00,
2013-08-23 04:53:00,61.3,60.4,30.08,NNW,342,0.0,0.0,97,0.00,OVC,,0.01,0.0,WeatherDisplay:10.37,2013-08-23 09:53:00,
2013-08-23 04:58:00,61.3,60.4,30.08,NNW,342,0.0,0.0,97,0.00,OVC,,0.01,0.0,WeatherDisplay:10.37,2013-08-23 09:58:00,
2013-08-23 05:03:00,61.6,61.0,30.08,NNW,342,0.0,0.0,98,0.00,OVC,,0.01,0.0,WeatherDisplay:10.37,2013-08-23 10:03:00,
2013-08-23 05:08:00,61.9,61.3,30.08,NNW,342,0.0,0.0,98,0.00,OVC,,0.01,0.0,WeatherDisplay:10.37,2013-08-23 10:08:00,
2013-08-23 05:13:00,62.0,61.4,30.08,NNW,342,1.1,1.1,98,0.00,OVC,,0.01,0.0,WeatherDisplay:10.37,2013-08-23 10:13:00,
2013-08-23 05:18:00,62.2,61.6,30.08,NNW,342,3.5,3.5,98,0.00,OVC,,0.01,0.0,WeatherDisplay:10.37,2013-08-23 10:18:00,
2013-08-23 05:23:00,62.7,62.1,30.08,NNW,342,2.3,2.3,98,0.00,OVC,,0.01,0.0,WeatherDisplay:10.37,2013-08-23 10:23:00,
2013-08-23 05:28:00,62.7,62.1,30.09,NNW,342,3.0,3.0,98,0.00,OVC,,0.01,0.0,WeatherDisplay:10.37,2013-08-23 10:28:00,
2013-08-23 05:33:00,62.7,62.1,30.09,NNW,342,3.5,3.5,98,0.00,OVC,,0.01,0.0,WeatherDisplay:10.37,2013-08-23 10:33:00,
2013-08-23 05:38:00,62.7,62.1,30.09,NNW,342,0.0,0.0,98,0.00,OVC,,0.01,0.0,WeatherDisplay:10.37,2013-08-23 10:38:00,
2013-08-23 05:43:00,62.3,61.7,30.09,NNW,342,2.3,2.3,98,0.00,OVC,,0.01,0.0,WeatherDisplay:10.37,2013-08-23 10:43:00,
2013-08-23 05:48:00,62.3,61.7,30.09,NNW,342,3.5,3.5,98,0.00,OVC,,0.01,0.0,WeatherDisplay:10.37,2013-08-23 10:48:00,
2013-08-23 05:53:00,62.7,62.1,30.10,NNW,342,3.5,3.5,98,0.00,OVC,,0.01,0.0,WeatherDisplay:10.37,2013-08-23 10:53:00,
2013-08-23 05:58:00,63.0,62.4,30.10,NNW,342,3.5,3.5,98,0.00,OVC,,0.01,0.0,WeatherDisplay:10.37,2013-08-23 10:58:00,
2013-08-23 06:03:00,63.2,62.6,30.10,NNW,342,3.5,3.5,98,0.00,OVC,,0.01,0.0,WeatherDisplay:10.37,2013-08-23 11:03:00,
2013-08-23 06:08:00,63.5,62.9,30.10,NNW,342,3.5,3.5,98,0.00,OVC,,0.01,0.0,WeatherDisplay:10.37,2013-08-23 11:08:00,
2013-08-23 06:13:00,63.7,63.1,30.10,NNW,342,2.3,2.3,98,0.00,OVC,,0.01,0.0,WeatherDisplay:10.37,2013-08-23 11:13:00,
2013-08-23 06:18:00,63.8,63.2,30.11,NNW,342,3.5,3.5,98,0.00,OVC,,0.01,0.0,WeatherDisplay:10.37,2013-08-23 11:18:00,
2013-08-23 06:23:00,64.0,63.4,30.11,NNW,342,3.5,3.5,98,0.00,OVC,,0.01,5.0,WeatherDisplay:10.37,2013-08-23 11:23:00,
2013-08-23 06:28:00,64.2,63.6,30.11,NNW,342,3.5,3.5,98,0.00,OVC,,0.01,9.0,WeatherDisplay:10.37,2013-08-23 11:28:00,
2013-08-23 06:33:00,64.2,63.6,30.11,NNW,337,4.0,4.0,98,0.00,OVC,,0.01,12.0,WeatherDisplay:10.37,2013-08-23 11:33:00,
2013-08-23 06:38:00,64.2,63.6,30.11,NNW,337,3.5,3.5,98,0.00,OVC,,0.01,14.0,WeatherDisplay:10.37,2013-08-23 11:38:00,
2013-08-23 06:43:00,64.3,63.7,30.11,NNW,337,3.5,3.5,98,0.00,OVC,,0.01,18.0,WeatherDisplay:10.37,2013-08-23 11:43:00,
2013-08-23 06:48:00,64.6,64.0,30.11,NNW,333,4.0,4.0,98,0.00,OVC,,0.01,21.0,WeatherDisplay:10.37,2013-08-23 11:48:00,
2013-08-23 06:53:00,64.8,64.2,30.11,North,355,4.6,4.6,98,0.00,OVC,,0.01,26.0,WeatherDisplay:10.37,2013-08-23 11:53:00,
2013-08-23 06:58:00,65.0,64.4,30.12,North,355,3.5,3.5,98,0.00,OVC,,0.01,28.0,WeatherDisplay:10.37,2013-08-23 11:58:00,
2013-08-23 07:03:00,65.1,64.5,30.12,North,355,3.5,3.5,98,0.00,OVC,,0.01,40.0,WeatherDisplay:10.37,2013-08-23 12:03:00,
2013-08-23 07:08:00,65.2,64.6,30.12,North,355,4.6,4.6,98,0.00,OVC,,0.01,47.0,WeatherDisplay:10.37,2013-08-23 12:08:00,
2013-08-23 07:13:00,65.3,64.7,30.12,North,355,3.5,3.5,98,0.00,OVC,,0.01,49.0,WeatherDisplay:10.37,2013-08-23 12:13:00,
2013-08-23 07:18:00,65.4,64.8,30.12,North,355,3.5,3.5,98,0.00,OVC,,0.01,49.0,WeatherDisplay:10.37,2013-08-23 12:18:00,
2013-08-23 07:23:00,65.5,64.9,30.12,North,355,3.5,3.5,98,0.00,OVC,,0.01,54.0,WeatherDisplay:10.37,2013-08-23 12:23:00,
2013-08-23 07:28:00,65.6,65.0,30.12,North,355,2.3,2.3,98,0.00,OVC,,0.01,70.0,WeatherDisplay:10.37,2013-08-23 12:28:00,
2013-08-23 07:33:00,65.8,65.2,30.12,North,355,3.5,3.5,98,0.00,OVC,,0.01,70.0,WeatherDisplay:10.37,2013-08-23 12:33:00,
2013-08-23 07:38:00,66.1,65.5,30.12,North,355,3.5,3.5,98,0.00,OVC,,0.01,83.0,WeatherDisplay:10.37,2013-08-23 12:38:00,
2013-08-23 07:43:00,66.3,65.7,30.13,NNE,17,3.5,3.5,98,0.00,OVC,,0.01,105.0,WeatherDisplay:10.37,2013-08-23 12:43:00,
2013-08-23 07:48:00,66.7,66.1,30.13,NNE,18,3.0,3.0,98,0.00,OVC,,0.01,107.0,WeatherDisplay:10.37,2013-08-23 12:48:00,
2013-08-23 07:53:00,67.1,66.5,30.13,NNE,19,2.3,2.3,98,0.00,OVC,,0.01,148.0,WeatherDisplay:10.37,2013-08-23 12:53:00,
2013-08-23 07:58:00,67.5,66.9,30.13,NE,38,3.0,3.0,98,0.00,OVC,,0.01,146.0,WeatherDisplay:10.37,2013-08-23 12:58:00,
2013-08-23 08:03:00,67.5,66.9,30.13,NE,51,4.0,4.0,98,0.00,OVC,,0.01,118.0,WeatherDisplay:10.37,2013-08-23 13:03:00,
2013-08-23 08:08:00,67.6,67.0,30.13,NE,51,3.5,3.5,98,0.00,OVC,,0.01,125.0,WeatherDisplay:10.37,2013-08-23 13:08:00,
2013-08-23 08:13:00,68.0,67.4,30.13,NE,51,3.5,3.5,98,0.00,OVC,,0.01,192.0,WeatherDisplay:10.37,2013-08-23 13:13:00,
2013-08-23 08:18:00,68.4,67.8,30.13,NE,51,3.5,3.5,98,0.00,OVC,,0.01,174.0,WeatherDisplay:10.37,2013-08-23 13:18:00,
2013-08-23 08:23:00,68.5,67.9,30.13,ENE,70,3.5,3.5,98,0.00,OVC,,0.01,135.0,WeatherDisplay:10.37,2013-08-23 13:23:00,
2013-08-23 08:28:00,68.5,67.9,30.13,NNE,25,5.8,5.8,98,0.00,OVC,,0.01,139.0,WeatherDisplay:10.37,2013-08-23 13:28:00,
2013-08-23 08:33:00,68.3,67.7,30.13,NE,41,5.8,5.8,98,0.00,OVC,,0.01,146.0,WeatherDisplay:10.37,2013-08-23 13:33:00,
2013-08-23 08:38:00,68.2,67.6,30.13,NE,44,3.5,3.9,98,0.00,OVC,,0.01,329.0,WeatherDisplay:10.37,2013-08-23 13:38:00,
2013-08-23 08:43:00,68.8,68.2,30.13,NE,40,4.6,4.6,98,0.00,OVC,,0.01,385.0,WeatherDisplay:10.37,2013-08-23 13:43:00,
2013-08-23 08:48:00,69.2,68.3,30.13,ENE,74,5.8,5.8,97,0.00,OVC,,0.01,422.0,WeatherDisplay:10.37,2013-08-23 13:48:00,
2013-08-23 08:53:00,69.6,68.1,30.13,NE,51,4.6,4.6,95,0.00,OVC,,0.01,387.0,WeatherDisplay:10.37,2013-08-23 13:53:00,
2013-08-23 08:58:00,69.7,67.9,30.13,ENE,68,4.6,4.6,94,0.00,OVC,,0.01,206.0,WeatherDisplay:10.37,2013-08-23 13:58:00,
2013-08-23 09:03:00,69.7,67.9,30.13,ENE,57,5.0,5.0,94,0.00,OVC,,0.01,169.0,WeatherDisplay:10.37,2013-08-23 14:03:00,
2013-08-23 09:08:00,69.9,67.8,30.13,NE,46,3.5,3.5,93,0.00,OVC,,0.01,162.0,WeatherDisplay:10.37,2013-08-23 14:08:00,
2013-08-23 09:13:00,70.1,67.7,30.14,NE,54,3.5,3.5,92,0.00,OVC,,0.01,243.0,WeatherDisplay:10.37,2013-08-23 14:13:00,
2013-08-23 09:18:00,70.8,68.7,30.14,ENE,61,5.0,5.0,93,0.00,OVC,,0.01,489.0,WeatherDisplay:10.37,2013-08-23 14:18:00,
2013-08-23 09:23:00,71.4,68.3,30.14,NE,53,6.9,6.9,90,0.00,OVC,,0.01,221.0,WeatherDisplay:10.37,2013-08-23 14:23:00,
2013-08-23 09:28:00,71.6,67.5,30.14,NE,54,4.6,4.6,87,0.00,OVC,,0.01,209.0,WeatherDisplay:10.37,2013-08-23 14:28:00,
2013-08-23 09:33:00,71.5,67.4,30.14,ENE,57,3.5,3.8,87,0.00,BKN,,0.01,230.0,WeatherDisplay:10.37,2013-08-23 14:33:00,
2013-08-23 09:38:00,72.1,68.3,30.14,NE,42,6.0,6.0,88,0.00,BKN,,0.01,591.0,WeatherDisplay:10.37,2013-08-23 14:38:00,
2013-08-23 09:43:00,72.9,68.1,30.14,NE,46,5.8,5.8,85,0.00,BKN,,0.01,578.0,WeatherDisplay:10.37,2013-08-23 14:43:00,
2013-08-23 09:48:00,73.1,68.3,30.14,NE,52,3.5,3.5,85,0.00,BKN,,0.01,591.0,WeatherDisplay:10.37,2013-08-23 14:48:00,
2013-08-23 09:53:00,73.7,68.9,30.14,NE,54,3.5,3.5,85,0.00,BKN,,0.01,589.0,WeatherDisplay:10.37,2013-08-23 14:53:00,
2013-08-23 09:58:00,74.3,68.4,30.14,NE,47,5.8,5.8,82,0.00,BKN,,0.01,613.0,WeatherDisplay:10.37,2013-08-23 14:58:00,
2013-08-23 10:03:00,74.6,68.7,30.14,NE,34,4.6,4.6,82,0.00,BKN,,0.01,582.0,WeatherDisplay:10.37,2013-08-23 15:03:00,
2013-08-23 10:08:00,74.6,68.7,30.14,North,10,6.0,6.0,82,0.00,BKN,,0.01,649.0,WeatherDisplay:10.37,2013-08-23 15:08:00,
2013-08-23 10:13:00,74.9,68.7,30.14,NE,41,4.6,4.6,81,0.00,BKN,,0.01,647.0,WeatherDisplay:10.37,2013-08-23 15:13:00,
2013-08-23 10:18:00,75.5,68.9,30.14,NE,34,8.1,8.1,80,0.00,BKN,,0.01,645.0,WeatherDisplay:10.37,2013-08-23 15:18:00,
2013-08-23 10:23:00,75.7,68.7,30.14,North,11,4.6,4.6,79,0.00,BKN,,0.01,677.0,WeatherDisplay:10.37,2013-08-23 15:23:00,
2013-08-23 10:28:00,75.8,68.8,30.14,ENE,62,6.9,6.9,79,0.00,BKN,,0.01,680.0,WeatherDisplay:10.37,2013-08-23 15:28:00,
2013-08-23 10:34:00,76.0,68.6,30.14,ENE,69,4.6,4.6,78,0.00,SCT,,0.01,670.0,WeatherDisplay:10.37,2013-08-23 15:34:00,
2013-08-23 10:39:00,76.2,68.5,30.14,NE,35,3.5,3.5,77,0.00,SCT,,0.01,707.0,WeatherDisplay:10.37,2013-08-23 15:39:00,
2013-08-23 10:44:00,76.2,68.8,30.14,NE,43,9.2,9.2,78,0.00,SCT,,0.01,717.0,WeatherDisplay:10.37,2013-08-23 15:44:00,
2013-08-23 10:49:00,76.5,68.0,30.14,NNE,28,8.1,8.1,75,0.00,SCT,,0.01,726.0,WeatherDisplay:10.37,2013-08-23 15:49:00,
2013-08-23 10:54:00,77.0,68.9,30.14,ENE,57,9.2,9.2,76,0.00,SCT,,0.01,731.0,WeatherDisplay:10.37,2013-08-23 15:54:00,
2013-08-23 10:59:00,77.2,67.9,30.14,NE,44,8.1,8.1,73,0.00,SCT,,0.01,752.0,WeatherDisplay:10.37,2013-08-23 15:59:00,
2013-08-23 11:04:00,76.7,68.2,30.14,NE,41,10.4,10.4,75,0.00,SCT,,0.01,759.0,WeatherDisplay:10.37,2013-08-23 16:04:00,
2013-08-23 11:09:00,77.1,67.8,30.14,ENE,68,5.8,5.8,73,0.00,SCT,,0.01,742.0,WeatherDisplay:10.37,2013-08-23 16:09:00,
2013-08-23 11:14:00,77.5,68.2,30.14,NE,39,9.2,9.2,73,0.00,SCT,,0.01,759.0,WeatherDisplay:10.37,2013-08-23 16:14:00,
2013-08-23 11:19:00,78.0,67.8,30.14,NNE,25,11.5,11.5,71,0.00,SCT,,0.01,775.0,WeatherDisplay:10.37,2013-08-23 16:19:00,
2013-08-23 11:24:00,78.3,67.7,30.14,NNE,15,8.1,8.1,70,0.00,SCT,,0.01,765.0,WeatherDisplay:10.37,2013-08-23 16:24:00,
2013-08-23 11:29:00,78.3,67.3,30.14,East,86,11.5,11.5,69,0.00,SCT,,0.01,779.0,WeatherDisplay:10.37,2013-08-23 16:29:00,
2013-08-23 11:34:00,78.7,68.1,30.14,North,5,9.2,9.2,70,0.00,SCT,,0.01,814.0,WeatherDisplay:10.37,2013-08-23 16:34:00,
2013-08-23 11:39:00,78.7,67.7,30.14,NNE,30,8.1,8.1,69,0.00,SCT,,0.01,789.0,WeatherDisplay:10.37,2013-08-23 16:39:00,
2013-08-23 11:44:00,79.0,68.0,30.14,NE,53,6.9,6.9,69,0.00,SCT,,0.01,786.0,WeatherDisplay:10.37,2013-08-23 16:44:00,
2013-08-23 11:49:00,79.3,67.0,30.14,NE,54,9.2,9.2,66,0.00,SCT,,0.01,817.0,WeatherDisplay:10.37,2013-08-23 16:49:00,
2013-08-23 11:54:00,79.5,66.7,30.14,NNE,17,6.9,6.9,65,0.00,SCT,,0.01,819.0,WeatherDisplay:10.37,2013-08-23 16:54:00,
2013-08-23 11:59:00,79.5,65.8,30.14,North,5,8.1,8.1,63,0.00,SCT,,0.01,763.0,WeatherDisplay:10.37,2013-08-23 16:59:00,
2013-08-23 12:04:00,79.6,66.3,30.14,NNE,23,8.1,8.1,64,0.00,CLR,,0.01,805.0,WeatherDisplay:10.37,2013-08-23 17:04:00,
2013-08-23 12:09:00,79.8,66.1,30.14,ENE,67,4.6,4.6,63,0.00,CLR,,0.01,810.0,WeatherDisplay:10.37,2013-08-23 17:09:00,
2013-08-23 12:14:00,80.1,65.4,30.13,NE,39,6.9,6.9,61,0.00,CLR,,0.01,817.0,WeatherDisplay:10.37,2013-08-23 17:14:00,
2013-08-23 12:19:00,80.4,64.3,30.13,NE,35,9.2,9.2,58,0.00,CLR,,0.01,828.0,WeatherDisplay:10.37,2013-08-23 17:19:00,
2013-08-23 12:24:00,80.6,65.4,30.13,ESE,118,3.5,3.5,60,0.00,CLR,,0.01,819.0,WeatherDisplay:10.37,2013-08-23 17:24:00,
2013-08-23 12:29:00,80.8,66.1,30.13,NNE,24,5.8,5.8,61,0.00,CLR,,0.01,819.0,WeatherDisplay:10.37,2013-08-23 17:29:00,
2013-08-23 12:34:00,80.6,65.4,30.13,ENE,57,5.8,5.8,60,0.00,CLR,,0.01,821.0,WeatherDisplay:10.37,2013-08-23 17:34:00,
2013-08-23 12:39:00,80.8,65.1,30.13,ENE,63,7.0,7.0,59,0.00,CLR,,0.01,830.0,WeatherDisplay:10.37,2013-08-23 17:39:00,
2013-08-23 12:44:00,81.0,64.8,30.13,NNE,13,5.0,5.0,58,0.00,CLR,,0.01,817.0,WeatherDisplay:10.37,2013-08-23 17:44:00,
2013-08-23 12:49:00,81.2,65.0,30.13,NE,46,4.6,4.6,58,0.00,CLR,,0.01,816.0,WeatherDisplay:10.37,2013-08-23 17:49:00,
2013-08-23 12:54:00,81.4,65.2,30.13,NNE,14,9.0,9.0,58,0.00,CLR,,0.01,814.0,WeatherDisplay:10.37,2013-08-23 17:54:00,
2013-08-23 12:59:00,81.4,64.7,30.12,NE,46,10.4,10.4,57,0.00,CLR,,0.01,821.0,WeatherDisplay:10.37,2013-08-23 17:59:00,
2013-08-23 13:04:00,81.4,64.7,30.12,NE,44,5.8,5.8,57,0.00,CLR,,0.01,817.0,WeatherDisplay:10.37,2013-08-23 18:04:00,
2013-08-23 13:09:00,81.5,64.3,30.12,ENE,57,10.4,10.4,56,0.00,CLR,,0.01,817.0,WeatherDisplay:10.37,2013-08-23 18:09:00,
2013-08-23 13:14:00,81.7,64.5,30.12,ENE,78,9.2,9.2,56,0.00,CLR,,0.01,817.0,WeatherDisplay:10.37,2013-08-23 18:14:00,
2013-08-23 13:19:00,81.8,64.6,30.12,NNE,29,7.0,7.0,56,0.00,CLR,,0.01,821.0,WeatherDisplay:10.37,2013-08-23 18:19:00,
2013-08-23 13:24:00,81.9,64.1,30.12,NE,42,5.8,5.8,55,0.00,CLR,,0.01,816.0,WeatherDisplay:10.37,2013-08-23 18:24:00,
2013-08-23 13:29:00,82.2,64.9,30.12,ENE,75,6.9,6.9,56,0.00,CLR,,0.01,816.0,WeatherDisplay:10.37,2013-08-23 18:29:00,
2013-08-23 13:34:00,82.2,63.4,30.12,NE,38,4.6,4.6,53,0.00,CLR,,0.01,807.0,WeatherDisplay:10.37,2013-08-23 18:34:00,
2013-08-23 13:39:00,82.5,64.7,30.12,NNE,30,6.9,6.9,55,0.00,CLR,,0.01,814.0,WeatherDisplay:10.37,2013-08-23 18:39:00,
2013-08-23 13:44:00,82.7,64.4,30.11,ENE,57,3.5,3.5,54,0.00,CLR,,0.01,798.0,WeatherDisplay:10.37,2013-08-23 18:44:00,
2013-08-23 13:49:00,82.7,65.4,30.12,ENE,59,10.0,10.0,56,0.00,CLR,,0.01,803.0,WeatherDisplay:10.37,2013-08-23 18:49:00,
2013-08-23 13:54:00,82.8,65.0,30.11,North,360,8.1,8.1,55,0.00,CLR,,0.01,809.0,WeatherDisplay:10.37,2013-08-23 18:54:00,
2013-08-23 13:59:00,82.8,66.0,30.11,East,92,8.1,8.1,57,0.00,CLR,,0.01,810.0,WeatherDisplay:10.37,2013-08-23 18:59:00,
2013-08-23 14:04:00,82.9,63.5,30.11,NNE,22,9.2,9.2,52,0.00,CLR,,0.01,802.0,WeatherDisplay:10.37,2013-08-23 19:04:00,
2013-08-23 14:09:00,82.9,64.0,30.11,East,80,9.0,9.0,53,0.00,CLR,,0.01,800.0,WeatherDisplay:10.37,2013-08-23 19:09:00,
2013-08-23 14:14:00,82.9,63.5,30.10,East,82,13.0,13.0,52,0.00,CLR,,0.01,789.0,WeatherDisplay:10.37,2013-08-23 19:14:00,
2013-08-23 14:19:00,82.9,62.9,30.10,East,80,9.2,9.2,51,0.00,CLR,,0.01,779.0,WeatherDisplay:10.37,2013-08-23 19:19:00,
2013-08-23 14:24:00,82.9,62.9,30.10,ENE,76,9.2,9.2,51,0.00,CLR,,0.01,777.0,WeatherDisplay:10.37,2013-08-23 19:24:00,
2013-08-23 14:29:00,83.2,64.3,30.10,ENE,61,10.4,10.4,53,0.00,CLR,,0.01,758.0,WeatherDisplay:10.37,2013-08-23 19:29:00,
2013-08-23 14:34:00,83.1,62.5,30.10,NE,49,8.1,8.1,50,0.00,CLR,,0.01,759.0,WeatherDisplay:10.37,2013-08-23 19:34:00,
2013-08-23 14:39:00,83.1,62.5,30.10,ENE,64,9.2,9.2,50,0.00,CLR,,0.01,758.0,WeatherDisplay:10.37,2013-08-23 19:39:00,
2013-08-23 14:44:00,83.1,62.5,30.10,East,92,6.9,6.9,50,0.00,CLR,,0.01,738.0,WeatherDisplay:10.37,2013-08-23 19:44:00,
2013-08-23 14:49:00,83.1,63.1,30.10,ENE,67,10.4,10.4,51,0.00,CLR,,0.01,731.0,WeatherDisplay:10.37,2013-08-23 19:49:00,
2013-08-23 14:54:00,83.1,63.1,30.10,ENE,78,8.1,8.1,51,0.00,CLR,,0.01,726.0,WeatherDisplay:10.37,2013-08-23 19:54:00,
2013-08-23 14:59:00,83.1,63.7,30.10,East,89,9.2,9.2,52,0.00,CLR,,0.01,707.0,WeatherDisplay:10.37,2013-08-23 19:59:00,
2013-08-23 15:04:00,83.4,63.4,30.10,NNE,12,6.0,6.0,51,0.00,CLR,,0.01,712.0,WeatherDisplay:10.37,2013-08-23 20:04:00,
2013-08-23 15:09:00,83.3,61.6,30.10,NE,44,10.4,10.4,48,0.00,CLR,,0.01,705.0,WeatherDisplay:10.37,2013-08-23 20:09:00,
2013-08-23 15:14:00,83.3,61.0,30.10,NE,48,9.2,9.2,47,0.00,CLR,,0.01,698.0,WeatherDisplay:10.37,2013-08-23 20:14:00,
2013-08-23 15:19:00,83.4,61.7,30.10,NE,40,6.0,6.3,48,0.00,CLR,,0.01,689.0,WeatherDisplay:10.37,2013-08-23 20:19:00,
2013-08-23 15:24:00,83.5,59.9,30.10,NE,43,10.4,10.4,45,0.00,CLR,,0.01,675.0,WeatherDisplay:10.37,2013-08-23 20:24:00,
2013-08-23 15:29:00,83.4,59.8,30.10,NE,38,5.8,5.8,45,0.00,CLR,,0.01,666.0,WeatherDisplay:10.37,2013-08-23 20:29:00,
2013-08-23 15:34:00,83.4,59.2,30.10,ENE,63,5.8,5.8,44,0.00,CLR,,0.01,654.0,WeatherDisplay:10.37,2013-08-23 20:34:00,
2013-08-23 15:39:00,83.5,59.9,30.10,NE,56,4.6,4.6,45,0.00,CLR,,0.01,642.0,WeatherDisplay:10.37,2013-08-23 20:39:00,
2013-08-23 15:44:00,83.5,62.3,30.09,NNE,13,5.0,5.0,49,0.00,CLR,,0.01,631.0,WeatherDisplay:10.37,2013-08-23 20:44:00,
2013-08-23 15:49:00,83.4,62.2,30.09,ENE,67,7.0,7.0,49,0.00,CLR,,0.01,613.0,WeatherDisplay:10.37,2013-08-23 20:49:00,
2013-08-23 15:54:00,83.4,62.2,30.09,East,93,4.6,4.6,49,0.00,CLR,,0.01,598.0,WeatherDisplay:10.37,2013-08-23 20:54:00,
2013-08-23 15:59:00,83.5,62.3,30.09,ENE,60,5.8,5.8,49,0.00,CLR,,0.01,582.0,WeatherDisplay:10.37,2013-08-23 20:59:00,
2013-08-23 16:04:00,83.6,61.2,30.09,East,82,4.6,4.6,47,0.00,CLR,,0.01,568.0,WeatherDisplay:10.37,2013-08-23 21:04:00,
2013-08-23 16:10:00,83.5,61.7,30.09,NE,48,8.1,8.1,48,0.00,CLR,,0.01,552.0,WeatherDisplay:10.37,2013-08-23 21:10:00,
2013-08-23 16:15:00,83.4,60.4,30.09,ENE,70,6.9,6.9,46,0.00,CLR,,0.01,543.0,WeatherDisplay:10.37,2013-08-23 21:15:00,
2013-08-23 16:20:00,83.2,62.1,30.09,North,360,9.2,9.2,49,0.00,CLR,,0.01,531.0,WeatherDisplay:10.37,2013-08-23 21:20:00,
2013-08-23 16:25:00,82.9,63.5,30.09,NNE,13,9.0,9.0,52,0.00,CLR,,0.01,515.0,WeatherDisplay:10.37,2013-08-23 21:25:00,
2013-08-23 16:30:00,82.7,61.6,30.09,NNE,26,6.9,6.9,49,0.00,CLR,,0.01,499.0,WeatherDisplay:10.37,2013-08-23 21:30:00,
2013-08-23 16:35:00,82.8,63.9,30.09,NE,42,8.1,8.1,53,0.00,CLR,,0.01,489.0,WeatherDisplay:10.37,2013-08-23 21:35:00,
2013-08-23 16:40:00,82.7,63.3,30.09,NNE,15,6.9,6.9,52,0.00,CLR,,0.01,476.0,WeatherDisplay:10.37,2013-08-23 21:40:00,
2013-08-23 16:45:00,82.3,62.9,30.09,NNW,345,9.2,9.2,52,0.00,CLR,,0.01,462.0,WeatherDisplay:10.37,2013-08-23 21:45:00,
2013-08-23 16:50:00,81.8,63.0,30.09,North,360,8.1,8.1,53,0.00,CLR,,0.01,446.0,WeatherDisplay:10.37,2013-08-23 21:50:00,
2013-08-23 16:55:00,81.6,62.3,30.09,North,355,10.4,10.4,52,0.00,CLR,,0.01,434.0,WeatherDisplay:10.37,2013-08-23 21:55:00,
2013-08-23 17:00:00,81.2,61.9,30.09,NNE,20,11.5,11.5,52,0.00,CLR,,0.01,418.0,WeatherDisplay:10.37,2013-08-23 22:00:00,
2013-08-23 17:05:00,81.1,62.3,30.09,NNE,17,10.4,10.4,53,0.00,CLR,,0.01,403.0,WeatherDisplay:10.37,2013-08-23 22:05:00,
2013-08-23 17:10:00,81.1,63.4,30.09,NNE,24,11.5,11.5,55,0.00,CLR,,0.01,388.0,WeatherDisplay:10.37,2013-08-23 22:10:00,
2013-08-23 17:15:00,81.0,62.3,30.09,North,5,10.4,10.4,53,0.00,CLR,,0.01,373.0,WeatherDisplay:10.37,2013-08-23 22:15:00,
2013-08-23 17:20:00,80.7,63.0,30.09,NNE,14,9.2,9.2,55,0.00,CLR,,0.01,357.0,WeatherDisplay:10.37,2013-08-23 22:20:00,
2013-08-23 17:25:00,80.3,62.1,30.09,NNE,23,10.4,10.4,54,0.00,CLR,,0.01,339.0,WeatherDisplay:10.37,2013-08-23 22:25:00,
2013-08-23 17:30:00,79.9,62.3,30.09,NNE,27,11.5,11.5,55,0.00,CLR,,0.01,325.0,WeatherDisplay:10.37,2013-08-23 22:30:00,
2013-08-23 17:35:00,79.7,62.1,30.09,NNE,32,10.4,10.4,55,0.00,CLR,,0.01,311.0,WeatherDisplay:10.37,2013-08-23 22:35:00,
2013-08-23 17:40:00,79.5,62.4,30.09,NNE,21,10.0,10.0,56,0.00,CLR,,0.01,295.0,WeatherDisplay:10.37,2013-08-23 22:40:00,
2013-08-23 17:45:00,79.2,61.1,30.09,North,11,11.5,11.5,54,0.00,CLR,,0.01,279.0,WeatherDisplay:10.37,2013-08-23 22:45:00,
2013-08-23 17:50:00,78.8,61.3,30.09,NNE,22,9.2,9.2,55,0.00,CLR,,0.01,265.0,WeatherDisplay:10.37,2013-08-23 22:50:00,
2013-08-23 17:55:00,78.5,61.0,30.09,NNE,22,13.0,13.0,55,0.00,CLR,,0.01,251.0,WeatherDisplay:10.37,2013-08-23 22:55:00,
2013-08-23 18:00:00,78.3,60.8,30.10,NNE,26,9.2,9.2,55,0.00,CLR,,0.01,234.0,WeatherDisplay:10.37,2013-08-23 23:00:00,
2013-08-23 18:05:00,78.0,61.0,30.10,NE,40,8.1,8.1,56,0.00,CLR,,0.01,216.0,WeatherDisplay:10.37,2013-08-23 23:05:00,
2013-08-23 18:10:00,77.8,61.8,30.10,NNE,26,7.0,7.0,58,0.00,CLR,,0.01,199.0,WeatherDisplay:10.37,2013-08-23 23:10:00,
2013-08-23 18:15:00,77.6,61.7,30.10,NNE,30,10.0,10.0,58,0.00,CLR,,0.01,179.0,WeatherDisplay:10.37,2013-08-23 23:15:00,
2013-08-23 18:20:00,77.2,61.3,30.10,North,9,6.9,6.9,58,0.00,CLR,,0.01,160.0,WeatherDisplay:10.37,2013-08-23 23:20:00,
2013-08-23 18:25:00,76.7,60.8,30.10,NE,40,9.2,9.2,58,0.00,CLR,,0.01,142.0,WeatherDisplay:10.37,2013-08-23 23:25:00,
2013-08-23 18:30:00,76.3,60.4,30.10,NNE,19,9.0,9.0,58,0.00,CLR,,0.01,125.0,WeatherDisplay:10.37,2013-08-23 23:30:00,
2013-08-23 18:35:00,75.9,61.0,30.10,NNE,26,5.8,5.8,60,0.00,CLR,,0.01,74.0,WeatherDisplay:10.37,2013-08-23 23:35:00,
2013-08-23 18:40:00,75.3,60.5,30.10,NE,46,8.1,8.1,60,0.00,CLR,,0.01,33.0,WeatherDisplay:10.37,2013-08-23 23:40:00,
2013-08-23 18:45:00,74.8,60.4,30.10,NNE,19,7.0,7.0,61,0.00,CLR,,0.01,32.0,WeatherDisplay:10.37,2013-08-23 23:45:00,
2013-08-23 18:50:00,74.4,60.5,30.10,NNE,30,6.9,6.9,62,0.00,CLR,,0.01,30.0,WeatherDisplay:10.37,2013-08-23 23:50:00,
2013-08-23 18:55:00,73.9,60.1,30.10,NNE,27,5.8,5.8,62,0.00,CLR,,0.01,28.0,WeatherDisplay:10.37,2013-08-23 23:55:00,
2013-08-23 19:00:00,73.4,60.0,30.10,NNE,19,5.8,5.8,63,0.00,CLR,,0.01,26.0,WeatherDisplay:10.37,2013-08-24 00:00:00,
2013-08-23 19:05:00,72.8,60.3,30.10,NNE,21,5.8,5.8,65,0.00,CLR,,0.01,23.0,WeatherDisplay:10.37,2013-08-24 00:05:00,
2013-08-23 19:10:00,72.2,60.2,30.10,NNE,28,7.0,7.0,66,0.00,CLR,,0.01,21.0,WeatherDisplay:10.37,2013-08-24 00:10:00,
2013-08-23 19:15:00,71.6,60.1,30.10,NNE,31,5.0,5.0,67,0.00,CLR,,0.01,18.0,WeatherDisplay:10.37,2013-08-24 00:15:00,
2013-08-23 19:20:00,71.0,59.9,30.10,NNE,31,4.0,4.0,68,0.00,CLR,,0.01,14.0,WeatherDisplay:10.37,2013-08-24 00:20:00,
2013-08-23 19:25:00,70.4,60.1,30.10,NNE,19,4.0,4.0,70,0.00,CLR,,0.01,11.0,WeatherDisplay:10.37,2013-08-24 00:25:00,
2013-08-23 19:30:00,69.9,59.7,30.10,NNE,29,3.5,3.5,70,0.00,CLR,,0.01,9.0,WeatherDisplay:10.37,2013-08-24 00:30:00,
2013-08-23 19:35:00,69.4,59.6,30.10,NNE,27,4.0,4.0,71,0.00,CLR,,0.01,5.0,WeatherDisplay:10.37,2013-08-24 00:35:00,
2013-08-23 19:40:00,68.8,59.4,30.11,NNE,13,3.5,3.5,72,0.00,CLR,,0.01,0.0,WeatherDisplay:10.37,2013-08-24 00:40:00,
2013-08-23 19:45:00,68.3,59.7,30.11,North,9,3.5,3.5,74,0.00,CLR,,0.01,0.0,WeatherDisplay:10.37,2013-08-24 00:45:00,
2013-08-23 19:50:00,67.6,59.8,30.11,NNE,16,3.5,3.5,76,0.00,CLR,,0.01,0.0,WeatherDisplay:10.37,2013-08-24 00:50:00,
2013-08-23 19:55:00,66.9,59.5,30.11,NNE,16,2.3,2.3,77,0.00,CLR,,0.01,0.0,WeatherDisplay:10.37,2013-08-24 00:55:00,
2013-08-23 20:00:00,66.4,59.7,30.11,NNE,16,2.3,2.3,79,0.00,CLR,,0.01,0.0,WeatherDisplay:10.37,2013-08-24 01:00:00,
2013-08-23 20:05:00,65.9,59.6,30.11,NNE,16,2.3,2.3,80,0.00,CLR,,0.01,0.0,WeatherDisplay:10.37,2013-08-24 01:05:00,
2013-08-23 20:10:00,65.5,59.5,30.11,NNE,16,3.5,3.5,81,0.00,CLR,,0.01,0.0,WeatherDisplay:10.37,2013-08-24 01:10:00,
2013-08-23 20:15:00,65.2,59.2,30.12,NNE,16,3.5,3.5,81,0.00,CLR,,0.01,0.0,WeatherDisplay:10.37,2013-08-24 01:15:00,
2013-08-23 20:20:00,64.9,59.3,30.12,NNE,16,3.5,3.5,82,0.00,CLR,,0.01,0.0,WeatherDisplay:10.37,2013-08-24 01:20:00,
2013-08-23 20:25:00,64.6,59.3,30.12,NNE,16,3.5,3.5,83,0.00,CLR,,0.01,0.0,WeatherDisplay:10.37,2013-08-24 01:25:00,
2013-08-23 20:30:00,64.4,59.1,30.12,NNE,16,3.5,3.5,83,0.00,CLR,,0.01,0.0,WeatherDisplay:10.37,2013-08-24 01:30:00,
2013-08-23 20:35:00,64.1,58.8,30.12,NNE,16,3.5,3.5,83,0.00,CLR,,0.01,0.0,WeatherDisplay:10.37,2013-08-24 01:35:00,
2013-08-23 20:40:00,63.9,58.6,30.13,NE,34,3.5,3.5,83,0.00,CLR,,0.01,0.0,WeatherDisplay:10.37,2013-08-24 01:40:00,
2013-08-23 20:45:00,63.7,58.4,30.13,NNE,19,2.3,2.3,83,0.00,CLR,,0.01,0.0,WeatherDisplay:10.37,2013-08-24 01:45:00,
2013-08-23 20:50:00,63.5,58.6,30.13,NNE,19,2.3,2.3,84,0.00,CLR,,0.01,0.0,WeatherDisplay:10.37,2013-08-24 01:50:00,
2013-08-23 20:55:00,63.2,58.3,30.13,NNE,19,3.5,3.5,84,0.00,CLR,,0.01,0.0,WeatherDisplay:10.37,2013-08-24 01:55:00,
2013-08-23 21:00:00,63.1,58.5,30.13,NNE,19,3.5,3.5,85,0.00,CLR,,0.01,0.0,WeatherDisplay:10.37,2013-08-24 02:00:00,
2013-08-23 21:05:00,62.9,58.3,30.13,NNE,19,2.3,2.3,85,0.00,CLR,,0.01,0.0,WeatherDisplay:10.37,2013-08-24 02:05:00,
2013-08-23 21:10:00,62.6,58.0,30.13,NNE,19,3.5,3.5,85,0.00,CLR,,0.01,0.0,WeatherDisplay:10.37,2013-08-24 02:10:00,
2013-08-23 21:15:00,62.4,57.8,30.13,NNE,19,2.3,2.3,85,0.00,CLR,,0.01,0.0,WeatherDisplay:10.37,2013-08-24 02:15:00,
2013-08-23 21:20:00,62.2,57.6,30.14,NNE,19,3.5,3.5,85,0.00,CLR,,0.01,0.0,WeatherDisplay:10.37,2013-08-24 02:20:00,
2013-08-23 21:25:00,62.1,57.5,30.14,NNE,19,3.5,3.5,85,0.00,CLR,,0.01,0.0,WeatherDisplay:10.37,2013-08-24 02:25:00,
2013-08-23 21:31:00,61.9,57.7,30.14,NNE,19,3.5,3.5,86,0.00,CLR,,0.01,0.0,WeatherDisplay:10.37,2013-08-24 02:31:00,
2013-08-23 21:36:00,61.6,57.4,30.14,NNE,19,3.5,3.5,86,0.00,CLR,,0.01,0.0,WeatherDisplay:10.37,2013-08-24 02:36:00,
2013-08-23 21:41:00,61.4,57.2,30.14,NNE,19,2.3,2.3,86,0.00,CLR,,0.01,0.0,WeatherDisplay:10.37,2013-08-24 02:41:00,
2013-08-23 21:46:00,61.3,57.1,30.14,NNE,19,2.3,2.3,86,0.00,CLR,,0.01,0.0,WeatherDisplay:10.37,2013-08-24 02:46:00,
2013-08-23 21:51:00,61.2,57.3,30.14,NNE,19,0.0,0.0,87,0.00,CLR,,0.01,0.0,WeatherDisplay:10.37,2013-08-24 02:51:00,
2013-08-23 21:56:00,61.3,57.4,30.15,NNE,19,1.1,1.1,87,0.00,CLR,,0.01,0.0,WeatherDisplay:10.37,2013-08-24 02:56:00,
2013-08-23 22:01:00,61.4,57.5,30.15,NNE,19,2.3,2.3,87,0.00,CLR,,0.01,0.0,WeatherDisplay:10.37,2013-08-24 03:01:00,
2013-08-23 22:06:00,61.3,57.1,30.14,NNE,19,2.3,2.3,86,0.00,CLR,,0.01,0.0,WeatherDisplay:10.37,2013-08-24 03:06:00,
2013-08-23 22:11:00,61.1,57.2,30.14,NNE,19,2.3,2.3,87,0.00,CLR,,0.01,0.0,WeatherDisplay:10.37,2013-08-24 03:11:00,
2013-08-23 22:16:00,60.8,56.9,30.14,NNE,19,2.3,2.3,87,0.00,CLR,,0.01,0.0,WeatherDisplay:10.37,2013-08-24 03:16:00,
2013-08-23 22:21:00,60.6,57.0,30.14,NNE,19,0.0,0.0,88,0.00,CLR,,0.01,0.0,WeatherDisplay:10.37,2013-08-24 03:21:00,
2013-08-23 22:26:00,60.3,56.4,30.14,NNE,19,0.0,0.0,87,0.00,CLR,,0.01,0.0,WeatherDisplay:10.37,2013-08-24 03:26:00,
2013-08-23 22:31:00,59.9,56.3,30.14,NNE,19,2.3,2.3,88,0.00,CLR,,0.01,0.0,WeatherDisplay:10.37,2013-08-24 03:31:00,
2013-08-23 22:36:00,59.7,56.8,30.14,NNE,19,3.5,3.5,90,0.00,CLR,,0.01,0.0,WeatherDisplay:10.37,2013-08-24 03:36:00,
2013-08-23 22:41:00,59.7,56.8,30.14,NNE,19,3.5,3.5,90,0.00,CLR,,0.01,0.0,WeatherDisplay:10.37,2013-08-24 03:41:00,
2013-08-23 22:46:00,59.7,56.8,30.14,NNE,19,3.5,3.5,90,0.00,CLR,,0.01,0.0,WeatherDisplay:10.37,2013-08-24 03:46:00,
2013-08-23 22:51:00,59.7,56.8,30.15,NNE,19,2.3,2.3,90,0.00,CLR,,0.01,0.0,WeatherDisplay:10.37,2013-08-24 03:51:00,
2013-08-23 22:56:00,59.8,56.9,30.15,NNE,19,2.3,2.3,90,0.00,CLR,,0.01,0.0,WeatherDisplay:10.37,2013-08-24 03:56:00,
2013-08-23 23:01:00,59.7,56.8,30.14,NNE,19,2.3,2.3,90,0.00,CLR,,0.01,0.0,WeatherDisplay:10.37,2013-08-24 04:01:00,
2013-08-23 23:06:00,59.4,56.5,30.14,NNE,19,0.0,0.0,90,0.00,CLR,,0.01,0.0,WeatherDisplay:10.37,2013-08-24 04:06:00,
2013-08-23 23:11:00,59.3,56.7,30.14,NNE,19,0.0,0.0,91,0.00,CLR,,0.01,0.0,WeatherDisplay:10.37,2013-08-24 04:11:00,
2013-08-23 23:16:00,59.3,56.7,30.15,NNE,19,0.0,0.0,91,0.00,CLR,,0.01,0.0,WeatherDisplay:10.37,2013-08-24 04:16:00,
2013-08-23 23:21:00,59.3,56.7,30.15,NNE,19,1.1,1.1,91,0.00,CLR,,0.01,0.0,WeatherDisplay:10.37,2013-08-24 04:21:00,
2013-08-23 23:26:00,59.3,56.7,30.15,NNE,19,0.0,0.0,91,0.00,CLR,,0.01,0.0,WeatherDisplay:10.37,2013-08-24 04:26:00,
2013-08-23 23:31:00,59.2,56.6,30.15,NNE,19,0.0,0.0,91,0.00,CLR,,0.01,0.0,WeatherDisplay:10.37,2013-08-24 04:31:00,
2013-08-23 23:36:00,59.0,56.4,30.15,NNE,19,1.1,1.1,91,0.00,CLR,,0.01,0.0,WeatherDisplay:10.37,2013-08-24 04:36:00,
2013-08-23 23:41:00,59.0,56.7,30.15,NNE,19,0.0,0.0,92,0.00,CLR,,0.01,0.0,WeatherDisplay:10.37,2013-08-24 04:41:00,
2013-08-23 23:46:00,59.0,56.7,30.15,NNE,19,1.1,1.1,92,0.00,CLR,,0.01,0.0,WeatherDisplay:10.37,2013-08-24 04:46:00,
2013-08-23 23:51:00,58.9,56.6,30.15,NNE,19,2.3,2.3,92,0.00,CLR,,0.01,0.0,WeatherDisplay:10.37,2013-08-24 04:51:00,
2013-08-23 23:56:00,58.8,56.5,30.15,NNE,19,2.3,2.3,92,0.00,CLR,,0.01,0.0,WeatherDisplay:10.37,2013-08-24 04:56:00,